Location: Oberstdorf
(47.4188°N, 10.2969°E)
Time: 12:41:01
(UTC+02:00)

Envisat - Visible Passes

Search period start: 20 April 2018 00:00
Search period end: 30 April 2018 00:00
Orbit: 764 x 766 km, 98.2° (Epoch: 19 April)

Date Brightness Start Highest point End Pass type
(mag) Time Alt. Az. Time Alt. Az. Time Alt. Az.
20 Apr 5.3 21:45:02 10° SW 21:48:58 23° W 21:52:57 10° NW visible
21 Apr 4.1 21:07:06 10° S 21:11:58 46° W 21:16:52 10° NNW visible
22 Apr 5.7 22:12:26 10° WSW 22:14:53 13° W 22:17:19 10° WNW visible
23 Apr 5.0 21:33:25 10° SSW 21:37:43 28° W 21:42:04 10° NW visible
24 Apr 3.7 20:55:47 10° S 21:00:47 57° W 21:05:49 10° NNW visible
25 Apr 5.6 22:00:21 10° SW 22:03:35 17° W 22:06:49 10° NW visible
26 Apr 4.7 21:21:54 10° SSW 21:26:29 34° W 21:31:07 10° NNW visible
28 Apr 5.4 21:48:32 10° SW 21:52:18 21° W 21:56:06 10° NW visible
29 Apr 4.3 21:10:28 10° SSW 21:15:16 42° W 21:20:07 10° NNW visible
